Time,TemperatureF,DewpointF,PressureIn,WindDirection,WindDirectionDegrees,WindSpeedMPH,WindSpeedGustMPH,Humidity,HourlyPrecipIn,Conditions,Clouds,dailyrainin,SoftwareType,DateUTC
2013-03-30 00:07:00,66.9,61.9,30.07,ESE,112,5.1,-999.0,84,-99.99,,,0.00,Acu-Link.com,2013-03-30 05:07:00,
2013-03-30 00:22:00,66.2,61.9,30.06,South,180,5.1,-999.0,86,-99.99,,,0.00,Acu-Link.com,2013-03-30 05:22:00,
2013-03-30 00:37:00,66.0,62.0,30.05,South,180,8.3,-999.0,87,-99.99,,,0.00,Acu-Link.com,2013-03-30 05:37:00,
2013-03-30 00:53:00,66.0,62.7,30.07,SW,225,6.3,-999.0,89,-99.99,,,0.00,Acu-Link.com,2013-03-30 05:53:00,
2013-03-30 01:08:00,65.5,62.5,30.08,NW,315,4.7,-999.0,90,-99.99,,,0.00,Acu-Link.com,2013-03-30 06:08:00,
2013-03-30 01:38:00,65.5,62.8,30.09,SSW,202,0.0,-999.0,91,-99.99,,,0.00,Acu-Link.com,2013-03-30 06:38:00,
2013-03-30 01:54:00,65.7,63.0,30.10,SSW,202,4.7,-999.0,91,-99.99,,,0.00,Acu-Link.com,2013-03-30 06:54:00,
2013-03-30 02:09:00,66.0,63.3,30.10,South,180,4.3,-999.0,91,-99.99,,,0.00,Acu-Link.com,2013-03-30 07:09:00,
2013-03-30 02:24:00,66.0,63.3,30.09,SSW,202,6.3,-999.0,91,-99.99,,,0.00,Acu-Link.com,2013-03-30 07:24:00,
2013-03-30 02:39:00,65.8,63.8,30.10,WSW,247,1.6,-999.0,93,-99.99,,,0.00,Acu-Link.com,2013-03-30 07:39:00,
2013-03-30 02:54:00,61.9,61.3,30.13,WNW,292,7.8,-999.0,98,-99.99,,,0.01,Acu-Link.com,2013-03-30 07:54:00,
2013-03-30 03:10:00,60.3,59.7,30.14,West,270,8.9,-999.0,98,-99.99,,,0.45,Acu-Link.com,2013-03-30 08:10:00,
2013-03-30 03:25:00,59.5,59.0,30.14,SSW,202,7.4,-999.0,98,-99.99,,,0.62,Acu-Link.com,2013-03-30 08:25:00,
2013-03-30 03:40:00,58.8,58.3,30.11,SSW,202,4.3,-999.0,98,-99.99,,,0.98,Acu-Link.com,2013-03-30 08:40:00,
2013-03-30 03:56:00,58.3,57.7,30.09,WSW,247,3.1,-999.0,98,-99.99,,,1.04,Acu-Link.com,2013-03-30 08:56:00,
2013-03-30 04:41:00,57.6,57.0,30.07,SSE,157,2.2,-999.0,98,-99.99,,,1.19,Acu-Link.com,2013-03-30 09:41:00,
2013-03-30 04:56:00,57.4,56.8,30.06,East,90,1.6,-999.0,98,-99.99,,,1.23,Acu-Link.com,2013-03-30 09:56:00,
2013-03-30 05:12:00,57.0,56.5,30.05,SSW,202,2.7,-999.0,98,-99.99,,,1.24,Acu-Link.com,2013-03-30 10:12:00,
2013-03-30 05:27:00,56.5,55.9,30.06,SW,225,0.0,-999.0,98,-99.99,,,1.24,Acu-Link.com,2013-03-30 10:27:00,
2013-03-30 05:42:00,56.1,55.6,30.07,SW,225,0.0,-999.0,98,-99.99,,,1.24,Acu-Link.com,2013-03-30 10:42:00,
2013-03-30 05:57:00,55.9,55.4,30.08,SE,135,0.0,-999.0,98,-99.99,,,1.24,Acu-Link.com,2013-03-30 10:57:00,
2013-03-30 06:12:00,55.6,55.0,30.07,SSW,202,0.0,-999.0,98,-99.99,,,1.24,Acu-Link.com,2013-03-30 11:12:00,
2013-03-30 06:28:00,55.6,55.0,30.08,WSW,247,0.0,-999.0,98,-99.99,,,1.24,Acu-Link.com,2013-03-30 11:28:00,
2013-03-30 06:43:00,55.6,55.0,30.08,SW,225,2.7,-999.0,98,-99.99,,,1.24,Acu-Link.com,2013-03-30 11:43:00,
2013-03-30 06:58:00,55.4,54.8,30.08,ENE,67,0.0,-999.0,98,-99.99,,,1.24,Acu-Link.com,2013-03-30 11:58:00,
2013-03-30 07:13:00,55.2,54.7,30.08,SSE,157,0.0,-999.0,98,-99.99,,,1.24,Acu-Link.com,2013-03-30 12:13:00,
2013-03-30 07:28:00,54.9,54.3,30.09,South,180,0.0,-999.0,98,-99.99,,,1.24,Acu-Link.com,2013-03-30 12:28:00,
2013-03-30 07:44:00,55.4,54.8,30.09,SW,225,0.0,-999.0,98,-99.99,,,1.24,Acu-Link.com,2013-03-30 12:44:00,
2013-03-30 07:59:00,56.3,55.7,30.09,SW,225,0.0,-999.0,98,-99.99,,,1.24,Acu-Link.com,2013-03-30 12:59:00,
2013-03-30 08:14:00,57.4,56.8,30.09,South,180,0.0,-999.0,98,-99.99,,,1.24,Acu-Link.com,2013-03-30 13:14:00,
2013-03-30 08:29:00,58.6,58.1,30.08,WSW,247,2.7,-999.0,98,-99.99,,,1.24,Acu-Link.com,2013-03-30 13:29:00,
2013-03-30 08:45:00,59.7,59.2,30.08,SSW,202,1.1,-999.0,98,-99.99,,,1.24,Acu-Link.com,2013-03-30 13:45:00,
2013-03-30 09:00:00,61.0,60.4,30.08,East,90,2.7,-999.0,98,-99.99,,,1.24,Acu-Link.com,2013-03-30 14:00:00,
2013-03-30 09:15:00,63.3,62.7,30.08,South,180,3.1,-999.0,98,-99.99,,,1.24,Acu-Link.com,2013-03-30 14:15:00,
2013-03-30 09:30:00,65.1,64.5,30.08,SSE,157,4.3,-999.0,98,-99.99,,,1.25,Acu-Link.com,2013-03-30 14:30:00,
2013-03-30 09:45:00,64.9,64.4,30.08,ESE,112,4.7,-999.0,98,-99.99,,,1.25,Acu-Link.com,2013-03-30 14:45:00,
2013-03-30 10:01:00,64.9,64.4,30.08,West,270,4.7,-999.0,98,-99.99,,,1.25,Acu-Link.com,2013-03-30 15:01:00,
2013-03-30 10:16:00,66.2,65.3,30.08,SSW,202,3.8,-999.0,97,-99.99,,,1.25,Acu-Link.com,2013-03-30 15:16:00,
2013-03-30 10:46:00,67.8,66.0,30.07,SW,225,4.3,-999.0,94,-99.99,,,1.25,Acu-Link.com,2013-03-30 15:46:00,
2013-03-30 11:02:00,67.5,65.7,30.07,West,270,5.8,-999.0,94,-99.99,,,1.25,Acu-Link.com,2013-03-30 16:02:00,
2013-03-30 11:17:00,67.6,65.5,30.07,West,270,10.3,-999.0,93,-99.99,,,1.25,Acu-Link.com,2013-03-30 16:17:00,
2013-03-30 11:32:00,71.1,67.6,30.07,West,270,5.8,-999.0,89,-99.99,,,1.25,Acu-Link.com,2013-03-30 16:32:00,
2013-03-30 11:47:00,72.0,67.5,30.06,West,270,5.1,-999.0,86,-99.99,,,1.25,Acu-Link.com,2013-03-30 16:47:00,
2013-03-30 12:02:00,71.8,67.4,30.06,SW,225,3.1,-999.0,86,-99.99,,,1.25,Acu-Link.com,2013-03-30 17:02:00,
2013-03-30 12:18:00,72.7,67.2,30.06,East,90,7.4,-999.0,83,-99.99,,,1.25,Acu-Link.com,2013-03-30 17:18:00,
2013-03-30 12:33:00,74.1,67.9,30.05,NW,315,4.3,-999.0,81,-99.99,,,1.25,Acu-Link.com,2013-03-30 17:33:00,
2013-03-30 12:48:00,74.3,67.7,30.05,SSW,202,10.3,-999.0,80,-99.99,,,1.25,Acu-Link.com,2013-03-30 17:48:00,
2013-03-30 13:03:00,74.5,67.9,30.04,SW,225,8.9,-999.0,80,-99.99,,,1.25,Acu-Link.com,2013-03-30 18:03:00,
2013-03-30 13:18:00,74.8,67.9,30.04,SW,225,5.8,-999.0,79,-99.99,,,1.25,Acu-Link.com,2013-03-30 18:18:00,
2013-03-30 13:34:00,76.8,69.0,30.03,West,270,7.4,-999.0,77,-99.99,,,1.25,Acu-Link.com,2013-03-30 18:34:00,
2013-03-30 13:49:00,77.4,68.4,30.03,South,180,7.8,-999.0,74,-99.99,,,1.25,Acu-Link.com,2013-03-30 18:49:00,
2013-03-30 14:04:00,78.1,68.3,30.01,SW,225,6.3,-999.0,72,-99.99,,,1.25,Acu-Link.com,2013-03-30 19:04:00,
2013-03-30 14:19:00,78.4,67.8,30.00,SW,225,5.1,-999.0,70,-99.99,,,1.25,Acu-Link.com,2013-03-30 19:19:00,
2013-03-30 14:34:00,78.8,67.7,30.00,SW,225,5.8,-999.0,69,-99.99,,,1.25,Acu-Link.com,2013-03-30 19:34:00,
2013-03-30 14:50:00,77.7,68.4,29.99,West,270,9.4,-999.0,73,-99.99,,,1.25,Acu-Link.com,2013-03-30 19:50:00,
2013-03-30 15:05:00,77.9,68.1,29.99,SW,225,5.8,-999.0,72,-99.99,,,1.25,Acu-Link.com,2013-03-30 20:05:00,
2013-03-30 15:20:00,78.4,67.8,29.98,WSW,247,9.4,-999.0,70,-99.99,,,1.25,Acu-Link.com,2013-03-30 20:20:00,
2013-03-30 15:35:00,77.2,68.2,29.97,West,270,4.7,-999.0,74,-99.99,,,1.25,Acu-Link.com,2013-03-30 20:35:00,
2013-03-30 15:50:00,79.2,67.2,29.96,SSE,157,6.3,-999.0,67,-99.99,,,1.25,Acu-Link.com,2013-03-30 20:50:00,
2013-03-30 16:21:00,76.1,66.4,29.96,West,270,6.3,-999.0,72,-99.99,,,1.25,Acu-Link.com,2013-03-30 21:21:00,
2013-03-30 16:36:00,75.7,66.8,29.96,SSW,202,6.7,-999.0,74,-99.99,,,1.25,Acu-Link.com,2013-03-30 21:36:00,
2013-03-30 16:51:00,75.4,66.9,29.96,SSE,157,5.1,-999.0,75,-99.99,,,1.25,Acu-Link.com,2013-03-30 21:51:00,
2013-03-30 17:07:00,75.4,66.5,29.96,SSW,202,6.3,-999.0,74,-99.99,,,1.25,Acu-Link.com,2013-03-30 22:07:00,
2013-03-30 17:22:00,75.6,66.7,29.96,SSE,157,3.8,-999.0,74,-99.99,,,1.25,Acu-Link.com,2013-03-30 22:22:00,
2013-03-30 17:37:00,75.6,66.7,29.95,SW,225,8.9,-999.0,74,-99.99,,,1.25,Acu-Link.com,2013-03-30 22:37:00,
2013-03-30 17:52:00,75.2,66.7,29.95,SW,225,6.3,-999.0,75,-99.99,,,1.25,Acu-Link.com,2013-03-30 22:52:00,
2013-03-30 18:07:00,75.0,66.2,29.95,SW,225,5.1,-999.0,74,-99.99,,,1.25,Acu-Link.com,2013-03-30 23:07:00,
2013-03-30 18:23:00,75.0,66.2,29.95,SW,225,2.7,-999.0,74,-99.99,,,1.25,Acu-Link.com,2013-03-30 23:23:00,
2013-03-30 18:38:00,74.8,66.0,29.94,SW,225,4.7,-999.0,74,-99.99,,,1.25,Acu-Link.com,2013-03-30 23:38:00,
2013-03-30 18:53:00,74.7,66.2,29.94,NW,315,0.0,-999.0,75,-99.99,,,1.25,Acu-Link.com,2013-03-30 23:53:00,
2013-03-30 19:08:00,74.3,66.2,29.94,SW,225,4.7,-999.0,76,-99.99,,,1.25,Acu-Link.com,2013-03-31 00:08:00,
2013-03-30 19:23:00,73.6,66.3,29.94,SSE,157,2.2,-999.0,78,-99.99,,,1.25,Acu-Link.com,2013-03-31 00:23:00,
2013-03-30 19:39:00,72.5,66.3,29.93,SSE,157,3.1,-999.0,81,-99.99,,,1.25,Acu-Link.com,2013-03-31 00:39:00,
2013-03-30 19:54:00,71.4,66.7,29.93,ESE,112,3.1,-999.0,85,-99.99,,,1.25,Acu-Link.com,2013-03-31 00:54:00,
2013-03-30 20:09:00,70.5,66.5,29.93,SSW,202,3.8,-999.0,87,-99.99,,,1.25,Acu-Link.com,2013-03-31 01:09:00,
2013-03-30 20:24:00,70.3,66.6,29.93,East,90,3.8,-999.0,88,-99.99,,,1.25,Acu-Link.com,2013-03-31 01:24:00,
2013-03-30 20:39:00,70.0,66.3,29.93,SW,225,4.3,-999.0,88,-99.99,,,1.25,Acu-Link.com,2013-03-31 01:39:00,
2013-03-30 20:55:00,69.6,66.2,29.93,SW,225,3.8,-999.0,89,-99.99,,,1.25,Acu-Link.com,2013-03-31 01:55:00,
2013-03-30 21:10:00,69.1,66.0,29.93,SSE,157,3.8,-999.0,90,-99.99,,,1.25,Acu-Link.com,2013-03-31 02:10:00,
2013-03-30 21:25:00,68.4,65.9,29.93,East,90,1.6,-999.0,92,-99.99,,,1.25,Acu-Link.com,2013-03-31 02:25:00,
2013-03-30 21:40:00,67.6,65.8,29.95,South,180,0.0,-999.0,94,-99.99,,,1.25,Acu-Link.com,2013-03-31 02:40:00,
2013-03-30 21:56:00,67.5,66.0,29.94,SW,225,2.7,-999.0,95,-99.99,,,1.25,Acu-Link.com,2013-03-31 02:56:00,
2013-03-30 22:11:00,66.9,65.7,29.95,South,180,3.1,-999.0,96,-99.99,,,1.25,Acu-Link.com,2013-03-31 03:11:00,
2013-03-30 22:26:00,66.9,66.0,29.95,NE,45,1.1,-999.0,97,-99.99,,,1.25,Acu-Link.com,2013-03-31 03:26:00,
2013-03-30 22:41:00,66.6,65.7,29.94,SSW,202,1.1,-999.0,97,-99.99,,,1.25,Acu-Link.com,2013-03-31 03:41:00,
2013-03-30 22:56:00,66.9,65.4,29.94,South,180,2.7,-999.0,95,-99.99,,,1.25,Acu-Link.com,2013-03-31 03:56:00,
2013-03-30 23:12:00,66.9,65.4,29.94,North,0,2.2,-999.0,95,-99.99,,,1.25,Acu-Link.com,2013-03-31 04:12:00,
2013-03-30 23:27:00,66.7,65.0,29.93,East,90,0.0,-999.0,94,-99.99,,,1.25,Acu-Link.com,2013-03-31 04:27:00,
2013-03-30 23:42:00,66.4,64.6,29.93,ESE,112,3.8,-999.0,94,-99.99,,,1.25,Acu-Link.com,2013-03-31 04:42:00,
2013-03-30 23:57:00,66.4,64.6,29.93,SE,135,2.7,-999.0,94,-99.99,,,1.25,Acu-Link.com,2013-03-31 04:57:00,